Year,Month,Day,Hour,Minute,Value (Times are PST for temperature in C)
2008,09,29,00,00,10.70
2008,09,29,00,01,10.70
2008,09,29,00,02,10.70
2008,09,29,00,03,10.70
2008,09,29,00,04,10.70
2008,09,29,00,05,10.70
2008,09,29,00,06,10.70
2008,09,29,00,07,10.70
2008,09,29,00,08,10.70
2008,09,29,00,09,10.70
2008,09,29,00,10,10.60
2008,09,29,00,11,10.50
2008,09,29,00,12,10.30
2008,09,29,00,13,10.20
2008,09,29,00,14,10.10
2008,09,29,00,15,10.10
2008,09,29,00,16,10.00
2008,09,29,00,17,10.00
2008,09,29,00,18,9.90
2008,09,29,00,19,9.90
2008,09,29,00,20,9.90
2008,09,29,00,21,9.90
2008,09,29,00,22,9.80
2008,09,29,00,23,9.80
2008,09,29,00,24,9.80
2008,09,29,00,25,9.90
2008,09,29,00,26,9.90
2008,09,29,00,27,9.90
2008,09,29,00,28,10.00
2008,09,29,00,29,10.10
2008,09,29,00,30,10.10
2008,09,29,00,31,10.20
2008,09,29,00,32,10.20
2008,09,29,00,33,10.20
2008,09,29,00,34,10.20
2008,09,29,00,35,10.20
2008,09,29,00,36,10.20
2008,09,29,00,37,10.20
2008,09,29,00,38,10.10
2008,09,29,00,39,10.10
2008,09,29,00,40,10.00
2008,09,29,00,41,10.00
2008,09,29,00,42,9.90
2008,09,29,00,43,9.90
2008,09,29,00,44,9.90
2008,09,29,00,45,9.80
2008,09,29,00,46,9.80
2008,09,29,00,47,9.80
2008,09,29,00,48,9.70
2008,09,29,00,49,9.80
2008,09,29,00,50,9.80
2008,09,29,00,51,10.00
2008,09,29,00,52,10.10
2008,09,29,00,53,10.20
2008,09,29,00,54,10.30
2008,09,29,00,55,10.40
2008,09,29,00,56,10.40
2008,09,29,00,57,10.40
2008,09,29,00,58,10.40
2008,09,29,00,59,10.40
2008,09,29,01,00,10.30
2008,09,29,01,01,10.20
2008,09,29,01,02,10.10
2008,09,29,01,03,10.10
2008,09,29,01,04,10.00
2008,09,29,01,05,10.10
2008,09,29,01,06,10.10
2008,09,29,01,07,10.10
2008,09,29,01,08,10.20
2008,09,29,01,09,10.30
2008,09,29,01,10,10.40
2008,09,29,01,11,10.30
2008,09,29,01,12,10.30
2008,09,29,01,13,10.20
2008,09,29,01,14,10.00
2008,09,29,01,15,9.80
2008,09,29,01,16,9.60
2008,09,29,01,17,9.50
2008,09,29,01,18,9.40
2008,09,29,01,19,9.30
2008,09,29,01,20,9.30
2008,09,29,01,21,9.20
2008,09,29,01,22,9.20
2008,09,29,01,23,9.10
2008,09,29,01,24,9.00
2008,09,29,01,25,8.90
2008,09,29,01,26,8.90
2008,09,29,01,27,8.80
2008,09,29,01,28,8.70
2008,09,29,01,29,8.60
2008,09,29,01,30,8.60
2008,09,29,01,31,8.50
2008,09,29,01,32,8.50
2008,09,29,01,33,8.50
2008,09,29,01,34,8.40
2008,09,29,01,35,8.40
2008,09,29,01,36,8.40
2008,09,29,01,37,8.40
2008,09,29,01,38,8.40
2008,09,29,01,39,8.50
2008,09,29,01,40,8.50
2008,09,29,01,41,8.40
2008,09,29,01,42,8.40
2008,09,29,01,43,8.40
2008,09,29,01,44,8.40
2008,09,29,01,45,8.30
2008,09,29,01,46,8.30
2008,09,29,01,47,8.30
2008,09,29,01,48,8.20
2008,09,29,01,49,8.20
2008,09,29,01,50,8.10
2008,09,29,01,51,8.00
2008,09,29,01,52,8.00
2008,09,29,01,53,7.90
2008,09,29,01,54,7.90
2008,09,29,01,55,7.90
2008,09,29,01,56,7.80
2008,09,29,01,57,7.80
2008,09,29,01,58,7.80
2008,09,29,01,59,7.70
2008,09,29,02,00,7.70
2008,09,29,02,01,7.70
2008,09,29,02,02,7.70
2008,09,29,02,03,7.70
2008,09,29,02,04,7.70
2008,09,29,02,05,7.70
2008,09,29,02,06,7.70
2008,09,29,02,07,7.70
2008,09,29,02,08,7.70
2008,09,29,02,09,7.70
2008,09,29,02,10,7.60
2008,09,29,02,11,7.60
2008,09,29,02,12,7.60
2008,09,29,02,13,7.60
2008,09,29,02,14,7.60
2008,09,29,02,15,7.50
2008,09,29,02,16,7.50
2008,09,29,02,17,7.50
2008,09,29,02,18,7.40
2008,09,29,02,19,7.50
2008,09,29,02,20,7.50
2008,09,29,02,21,7.50
2008,09,29,02,22,7.50
2008,09,29,02,23,7.50
2008,09,29,02,24,7.60
2008,09,29,02,25,7.60
2008,09,29,02,26,7.60
2008,09,29,02,27,7.70
2008,09,29,02,28,7.80
2008,09,29,02,29,7.80
2008,09,29,02,30,7.70
2008,09,29,02,31,7.70
2008,09,29,02,32,7.60
2008,09,29,02,33,7.60
2008,09,29,02,34,7.60
2008,09,29,02,35,7.60
2008,09,29,02,36,7.60
2008,09,29,02,37,7.70
2008,09,29,02,38,7.80
2008,09,29,02,39,7.90
2008,09,29,02,40,7.90
2008,09,29,02,41,7.80
2008,09,29,02,42,7.80
2008,09,29,02,43,7.70
2008,09,29,02,44,7.50
2008,09,29,02,45,7.50
2008,09,29,02,46,7.40
2008,09,29,02,47,7.40
2008,09,29,02,48,7.40
2008,09,29,02,49,7.40
2008,09,29,02,50,7.40
2008,09,29,02,51,7.50
2008,09,29,02,52,7.40
2008,09,29,02,53,7.40
2008,09,29,02,54,7.40
2008,09,29,02,55,7.40
2008,09,29,02,56,7.40
2008,09,29,02,57,7.40
2008,09,29,02,58,7.40
2008,09,29,02,59,7.40
2008,09,29,03,00,7.40
2008,09,29,03,01,7.40
2008,09,29,03,02,7.50
2008,09,29,03,03,7.50
2008,09,29,03,04,7.50
2008,09,29,03,05,7.50
2008,09,29,03,06,7.40
2008,09,29,03,07,7.40
2008,09,29,03,08,7.30
2008,09,29,03,09,7.30
2008,09,29,03,10,7.30
2008,09,29,03,11,7.30
2008,09,29,03,12,7.30
2008,09,29,03,13,7.30
2008,09,29,03,14,7.30
2008,09,29,03,15,7.20
2008,09,29,03,16,7.20
2008,09,29,03,17,7.20
2008,09,29,03,18,7.20
2008,09,29,03,19,7.20
2008,09,29,03,20,7.20
2008,09,29,03,21,7.20
2008,09,29,03,22,7.20
2008,09,29,03,23,7.20
2008,09,29,03,24,7.20
2008,09,29,03,25,7.20
2008,09,29,03,26,7.20
2008,09,29,03,27,7.20
2008,09,29,03,28,7.20
2008,09,29,03,29,7.10
2008,09,29,03,30,7.10
2008,09,29,03,31,7.10
2008,09,29,03,32,7.10
2008,09,29,03,33,7.10
2008,09,29,03,34,7.10
2008,09,29,03,35,7.10
2008,09,29,03,36,7.20
2008,09,29,03,37,7.20
2008,09,29,03,38,7.20
2008,09,29,03,39,7.30
2008,09,29,03,40,7.30
2008,09,29,03,41,7.30
2008,09,29,03,42,7.20
2008,09,29,03,43,7.20
2008,09,29,03,44,7.10
2008,09,29,03,45,7.00
2008,09,29,03,46,6.90
2008,09,29,03,47,6.90
2008,09,29,03,48,6.80
2008,09,29,03,49,6.80
2008,09,29,03,50,6.80
2008,09,29,03,51,6.80
2008,09,29,03,52,6.80
2008,09,29,03,53,6.80
2008,09,29,03,54,6.80
2008,09,29,03,55,6.80
2008,09,29,03,56,6.70
2008,09,29,03,57,6.70
2008,09,29,03,58,6.70
2008,09,29,03,59,6.70
2008,09,29,04,00,6.70
2008,09,29,04,01,6.60
2008,09,29,04,02,6.60
2008,09,29,04,03,6.60
2008,09,29,04,04,6.60
2008,09,29,04,05,6.70
2008,09,29,04,06,6.70
2008,09,29,04,07,6.70
2008,09,29,04,08,6.80
2008,09,29,04,09,6.80
2008,09,29,04,10,6.80
2008,09,29,04,11,6.80
2008,09,29,04,12,6.80
2008,09,29,04,13,6.80
2008,09,29,04,14,6.80
2008,09,29,04,15,6.80
2008,09,29,04,16,6.80
2008,09,29,04,17,6.80
2008,09,29,04,18,6.80
2008,09,29,04,19,6.80
2008,09,29,04,20,6.80
2008,09,29,04,21,6.80
2008,09,29,04,22,6.70
2008,09,29,04,23,6.60
2008,09,29,04,24,6.60
2008,09,29,04,25,6.60
2008,09,29,04,26,6.60
2008,09,29,04,27,6.50
2008,09,29,04,28,6.50
2008,09,29,04,29,6.50
2008,09,29,04,30,6.50
2008,09,29,04,31,6.50
2008,09,29,04,32,6.40
2008,09,29,04,33,6.50
2008,09,29,04,34,6.50
2008,09,29,04,35,6.50
2008,09,29,04,36,6.50
2008,09,29,04,37,6.50
2008,09,29,04,38,6.50
2008,09,29,04,39,6.60
2008,09,29,04,40,6.60
2008,09,29,04,41,6.60
2008,09,29,04,42,6.50
2008,09,29,04,43,6.50
2008,09,29,04,44,6.40
2008,09,29,04,45,6.40
2008,09,29,04,46,6.40
2008,09,29,04,47,6.30
2008,09,29,04,48,6.30
2008,09,29,04,49,6.30
2008,09,29,04,50,6.20
2008,09,29,04,51,6.20
2008,09,29,04,52,6.20
2008,09,29,04,53,6.20
2008,09,29,04,54,6.20
2008,09,29,04,55,6.20
2008,09,29,04,56,6.20
2008,09,29,04,57,6.10
2008,09,29,04,58,6.10
2008,09,29,04,59,6.00
2008,09,29,05,00,6.00
2008,09,29,05,01,5.90
2008,09,29,05,02,5.90
2008,09,29,05,03,5.90
2008,09,29,05,04,5.90
2008,09,29,05,05,5.90
2008,09,29,05,06,5.90
2008,09,29,05,07,5.90
2008,09,29,05,08,5.90
2008,09,29,05,09,5.90
2008,09,29,05,10,5.90
2008,09,29,05,11,5.90
2008,09,29,05,12,5.90
2008,09,29,05,13,5.90
2008,09,29,05,14,5.90
2008,09,29,05,15,5.90
2008,09,29,05,16,6.00
2008,09,29,05,17,6.00
2008,09,29,05,18,6.00
2008,09,29,05,19,6.00
2008,09,29,05,20,6.00
2008,09,29,05,21,6.00
2008,09,29,05,22,6.00
2008,09,29,05,23,6.00
2008,09,29,05,24,6.10
2008,09,29,05,25,6.20
2008,09,29,05,26,6.20
2008,09,29,05,27,6.20
2008,09,29,05,28,6.20
2008,09,29,05,29,6.20
2008,09,29,05,30,6.10
2008,09,29,05,31,6.10
2008,09,29,05,32,6.10
2008,09,29,05,33,6.00
2008,09,29,05,34,6.00
2008,09,29,05,35,5.90
2008,09,29,05,36,5.90
2008,09,29,05,37,5.80
2008,09,29,05,38,5.80
2008,09,29,05,39,5.80
2008,09,29,05,40,5.80
2008,09,29,05,41,5.80
2008,09,29,05,42,5.90
2008,09,29,05,43,5.80
2008,09,29,05,44,5.90
2008,09,29,05,45,5.90
2008,09,29,05,46,5.80
2008,09,29,05,47,5.80
2008,09,29,05,48,5.80
2008,09,29,05,49,5.80
2008,09,29,05,50,5.80
2008,09,29,05,51,5.80
2008,09,29,05,52,5.80
2008,09,29,05,53,5.80
2008,09,29,05,54,5.80
2008,09,29,05,55,5.80
2008,09,29,05,56,5.80
2008,09,29,05,57,5.80
2008,09,29,05,58,5.80
2008,09,29,05,59,5.90
2008,09,29,06,00,5.90
2008,09,29,06,01,5.90
2008,09,29,06,02,5.90
2008,09,29,06,03,5.80
2008,09,29,06,04,5.80
2008,09,29,06,05,5.70
2008,09,29,06,06,5.80
2008,09,29,06,07,5.80
2008,09,29,06,08,5.80
2008,09,29,06,09,5.80
2008,09,29,06,10,5.80
2008,09,29,06,11,5.80
2008,09,29,06,12,5.80
2008,09,29,06,13,5.70
2008,09,29,06,14,5.80
2008,09,29,06,15,5.80
2008,09,29,06,16,5.80
2008,09,29,06,17,5.80
2008,09,29,06,18,5.80
2008,09,29,06,19,5.70
2008,09,29,06,20,5.70
2008,09,29,06,21,5.70
2008,09,29,06,22,5.70
2008,09,29,06,23,5.70
2008,09,29,06,24,5.70
2008,09,29,06,25,5.80
2008,09,29,06,26,5.80
2008,09,29,06,27,5.80
2008,09,29,06,28,5.70
2008,09,29,06,29,5.70
2008,09,29,06,30,5.70
2008,09,29,06,31,5.70
2008,09,29,06,32,5.80
2008,09,29,06,33,5.80
2008,09,29,06,34,5.80
2008,09,29,06,35,5.80
2008,09,29,06,36,5.70
2008,09,29,06,37,5.70
2008,09,29,06,38,5.70
2008,09,29,06,39,5.70
2008,09,29,06,40,5.80
2008,09,29,06,41,5.80
2008,09,29,06,42,5.80
2008,09,29,06,43,5.80
2008,09,29,06,44,5.80
2008,09,29,06,45,5.80
2008,09,29,06,46,5.80
2008,09,29,06,47,5.80
2008,09,29,06,48,5.80
2008,09,29,06,49,5.90
2008,09,29,06,50,6.00
2008,09,29,06,51,6.10
2008,09,29,06,52,6.10
2008,09,29,06,53,6.10
2008,09,29,06,54,6.00
2008,09,29,06,55,6.00
2008,09,29,06,56,5.90
2008,09,29,06,57,5.80
2008,09,29,06,58,5.80
2008,09,29,06,59,5.70
2008,09,29,07,00,5.70
2008,09,29,07,01,5.80
2008,09,29,07,02,5.80
2008,09,29,07,03,5.80
2008,09,29,07,04,5.80
2008,09,29,07,05,5.70
2008,09,29,07,06,5.70
2008,09,29,07,07,5.70
2008,09,29,07,08,5.70
2008,09,29,07,09,5.80
2008,09,29,07,10,5.90
2008,09,29,07,11,6.10
2008,09,29,07,12,6.20
2008,09,29,07,13,6.20
2008,09,29,07,14,6.20
2008,09,29,07,15,6.10
2008,09,29,07,16,6.10
2008,09,29,07,17,6.00
2008,09,29,07,18,5.90
2008,09,29,07,19,5.90
2008,09,29,07,20,5.90
2008,09,29,07,21,6.00
2008,09,29,07,22,6.10
2008,09,29,07,23,6.20
2008,09,29,07,24,6.30
2008,09,29,07,25,6.30
2008,09,29,07,26,6.20
2008,09,29,07,27,6.20
2008,09,29,07,28,6.10
2008,09,29,07,29,6.10
2008,09,29,07,30,6.10
2008,09,29,07,31,6.00
2008,09,29,07,32,6.10
2008,09,29,07,33,6.10
2008,09,29,07,34,6.10
2008,09,29,07,35,6.20
2008,09,29,07,36,6.20
2008,09,29,07,37,6.20
2008,09,29,07,38,6.20
2008,09,29,07,39,6.10
2008,09,29,07,40,6.20
2008,09,29,07,41,6.20
2008,09,29,07,42,6.30
2008,09,29,07,43,6.40
2008,09,29,07,44,6.50
2008,09,29,07,45,6.60
2008,09,29,07,46,6.70
2008,09,29,07,47,6.70
2008,09,29,07,48,6.70
2008,09,29,07,49,6.70
2008,09,29,07,50,6.80
2008,09,29,07,51,6.80
2008,09,29,07,52,6.80
2008,09,29,07,53,6.90
2008,09,29,07,54,6.90
2008,09,29,07,55,7.00
2008,09,29,07,56,7.00
2008,09,29,07,57,7.00
2008,09,29,07,58,7.00
2008,09,29,07,59,7.10
2008,09,29,08,00,7.10
2008,09,29,08,01,7.10
2008,09,29,08,02,7.20
2008,09,29,08,03,7.20
2008,09,29,08,04,7.20
2008,09,29,08,05,7.20
2008,09,29,08,06,7.30
2008,09,29,08,07,7.30
2008,09,29,08,08,7.40
2008,09,29,08,09,7.50
2008,09,29,08,10,7.60
2008,09,29,08,11,7.70
2008,09,29,08,12,7.70
2008,09,29,08,13,7.80
2008,09,29,08,14,7.80
2008,09,29,08,15,7.80
2008,09,29,08,16,7.90
2008,09,29,08,17,8.00
2008,09,29,08,18,8.10
2008,09,29,08,19,8.20
2008,09,29,08,20,8.30
2008,09,29,08,21,8.40
2008,09,29,08,22,8.50
2008,09,29,08,23,8.60
2008,09,29,08,24,8.70
2008,09,29,08,25,8.80
2008,09,29,08,26,8.80
2008,09,29,08,27,8.90
2008,09,29,08,28,9.00
2008,09,29,08,29,9.00
2008,09,29,08,30,9.10
2008,09,29,08,31,9.20
2008,09,29,08,32,9.30
2008,09,29,08,33,9.40
2008,09,29,08,34,9.40
2008,09,29,08,35,9.50
2008,09,29,08,36,9.60
2008,09,29,08,37,9.60
2008,09,29,08,38,9.70
2008,09,29,08,39,9.80
2008,09,29,08,40,9.90
2008,09,29,08,41,10.00
2008,09,29,08,42,10.10
2008,09,29,08,43,10.20
2008,09,29,08,44,10.30
2008,09,29,08,45,10.40
2008,09,29,08,46,10.60
2008,09,29,08,47,10.70
2008,09,29,08,48,10.80
2008,09,29,08,49,10.90
2008,09,29,08,50,11.00
2008,09,29,08,51,11.10
2008,09,29,08,52,11.10
2008,09,29,08,53,11.20
2008,09,29,08,54,11.30
2008,09,29,08,55,11.40
2008,09,29,08,56,11.50
2008,09,29,08,57,11.60
2008,09,29,08,58,11.60
2008,09,29,08,59,11.70
2008,09,29,09,00,11.80
2008,09,29,09,01,11.90
2008,09,29,09,02,11.90
2008,09,29,09,03,12.00
2008,09,29,09,04,12.10
2008,09,29,09,05,12.20
2008,09,29,09,06,12.20
2008,09,29,09,07,12.30
2008,09,29,09,08,12.40
2008,09,29,09,09,12.50
2008,09,29,09,10,12.60
2008,09,29,09,11,12.70
2008,09,29,09,12,12.80
2008,09,29,09,13,12.90
2008,09,29,09,14,13.00
2008,09,29,09,15,13.20
2008,09,29,09,16,13.30
2008,09,29,09,17,13.40
2008,09,29,09,18,13.50
2008,09,29,09,19,13.60
2008,09,29,09,20,13.70
2008,09,29,09,21,13.80
2008,09,29,09,22,13.90
2008,09,29,09,23,13.90
2008,09,29,09,24,13.90
2008,09,29,09,25,13.90
2008,09,29,09,26,13.90
2008,09,29,09,27,13.90
2008,09,29,09,28,13.90
2008,09,29,09,29,13.90
2008,09,29,09,30,13.90
2008,09,29,09,31,13.90
2008,09,29,09,32,13.90
2008,09,29,09,33,13.90
2008,09,29,09,34,13.90
2008,09,29,09,35,13.90
2008,09,29,09,36,13.80
2008,09,29,09,37,13.90
2008,09,29,09,38,13.90
2008,09,29,09,39,13.90
2008,09,29,09,40,13.90
2008,09,29,09,41,13.90
2008,09,29,09,42,14.00
2008,09,29,09,43,14.00
2008,09,29,09,44,14.10
2008,09,29,09,45,14.10
2008,09,29,09,46,14.20
2008,09,29,09,47,14.20
2008,09,29,09,48,14.20
2008,09,29,09,49,14.30
2008,09,29,09,50,14.30
2008,09,29,09,51,14.30
2008,09,29,09,52,14.30
2008,09,29,09,53,14.30
2008,09,29,09,54,14.30
2008,09,29,09,55,14.30
2008,09,29,09,56,14.30
2008,09,29,09,57,14.40
2008,09,29,09,58,14.40
2008,09,29,09,59,14.40
2008,09,29,10,00,14.30
2008,09,29,10,01,14.40
2008,09,29,10,02,14.40
2008,09,29,10,03,14.40
2008,09,29,10,04,14.40
2008,09,29,10,05,14.50
2008,09,29,10,06,14.50
2008,09,29,10,07,14.50
2008,09,29,10,08,14.50
2008,09,29,10,09,14.50
2008,09,29,10,10,14.50
2008,09,29,10,11,14.60
2008,09,29,10,12,14.60
2008,09,29,10,13,14.70
2008,09,29,10,14,14.70
2008,09,29,10,15,14.70
2008,09,29,10,16,14.70
2008,09,29,10,17,14.70
2008,09,29,10,18,14.70
2008,09,29,10,19,14.80
2008,09,29,10,20,14.80
2008,09,29,10,21,14.80
2008,09,29,10,22,14.80
2008,09,29,10,23,14.80
2008,09,29,10,24,14.80
2008,09,29,10,25,14.80
2008,09,29,10,26,14.80
2008,09,29,10,27,14.80
2008,09,29,10,28,14.80
2008,09,29,10,29,14.70
2008,09,29,10,30,14.70
2008,09,29,10,31,14.60
2008,09,29,10,32,14.50
2008,09,29,10,33,14.40
2008,09,29,10,34,14.30
2008,09,29,10,35,14.20
2008,09,29,10,36,14.20
2008,09,29,10,37,14.10
2008,09,29,10,38,14.10
2008,09,29,10,39,14.10
2008,09,29,10,40,14.10
2008,09,29,10,41,14.20
2008,09,29,10,42,14.20
2008,09,29,10,43,14.30
2008,09,29,10,44,14.30
2008,09,29,10,45,14.40
2008,09,29,10,46,14.40
2008,09,29,10,47,14.40
2008,09,29,10,48,14.50
2008,09,29,10,49,14.50
2008,09,29,10,50,14.60
2008,09,29,10,51,14.60
2008,09,29,10,52,14.60
2008,09,29,10,53,14.60
2008,09,29,10,54,14.60
2008,09,29,10,55,14.60
2008,09,29,10,56,14.60
2008,09,29,10,57,14.60
2008,09,29,10,58,14.60
2008,09,29,10,59,14.60
2008,09,29,11,00,14.60
2008,09,29,11,01,14.70
2008,09,29,11,02,14.70
2008,09,29,11,03,14.70
2008,09,29,11,04,14.80
2008,09,29,11,05,14.80
2008,09,29,11,06,14.80
2008,09,29,11,07,14.80
2008,09,29,11,08,14.90
2008,09,29,11,09,14.90
2008,09,29,11,10,14.90
2008,09,29,11,11,14.90
2008,09,29,11,12,14.90
2008,09,29,11,13,14.90
2008,09,29,11,14,14.90
2008,09,29,11,15,14.90
2008,09,29,11,16,14.90
2008,09,29,11,17,14.90
2008,09,29,11,18,14.80
2008,09,29,11,19,14.80
2008,09,29,11,20,14.70
2008,09,29,11,21,14.70
2008,09,29,11,22,14.70
2008,09,29,11,23,14.70
2008,09,29,11,24,14.60
2008,09,29,11,25,14.60
2008,09,29,11,26,14.60
2008,09,29,11,27,14.70
2008,09,29,11,28,14.70
2008,09,29,11,29,14.80
2008,09,29,11,30,14.80
2008,09,29,11,31,14.90
2008,09,29,11,32,15.00
2008,09,29,11,33,15.00
2008,09,29,11,34,15.00
2008,09,29,11,35,15.00
2008,09,29,11,36,15.00
2008,09,29,11,37,15.00
2008,09,29,11,38,15.00
2008,09,29,11,39,15.00
2008,09,29,11,40,15.00
2008,09,29,11,41,15.10
2008,09,29,11,42,15.10
2008,09,29,11,43,15.10
2008,09,29,11,44,15.10
2008,09,29,11,45,15.20
2008,09,29,11,46,15.20
2008,09,29,11,47,15.20
2008,09,29,11,48,15.20
2008,09,29,11,49,15.10
2008,09,29,11,50,15.10
2008,09,29,11,51,15.10
2008,09,29,11,52,15.10
2008,09,29,11,53,15.10
2008,09,29,11,54,15.10
2008,09,29,11,55,15.20
2008,09,29,11,56,15.20
2008,09,29,11,57,15.30
2008,09,29,11,58,15.30
2008,09,29,11,59,15.30
2008,09,29,12,00,15.40
2008,09,29,12,01,15.40
2008,09,29,12,02,15.50
2008,09,29,12,03,15.50
2008,09,29,12,04,15.60
2008,09,29,12,05,15.70
2008,09,29,12,06,15.70
2008,09,29,12,07,15.70
2008,09,29,12,08,15.70
2008,09,29,12,09,15.70
2008,09,29,12,10,15.70
2008,09,29,12,11,15.70
2008,09,29,12,12,15.70
2008,09,29,12,13,15.70
2008,09,29,12,14,15.70
2008,09,29,12,15,15.60
2008,09,29,12,16,15.60
2008,09,29,12,17,15.60
2008,09,29,12,18,15.60
2008,09,29,12,19,15.60
2008,09,29,12,20,15.60
2008,09,29,12,21,15.60
2008,09,29,12,22,15.70
2008,09,29,12,23,15.70
2008,09,29,12,24,15.70
2008,09,29,12,25,15.70
2008,09,29,12,26,15.80
2008,09,29,12,27,15.80
2008,09,29,12,28,15.90
2008,09,29,12,29,15.90
2008,09,29,12,30,15.90
2008,09,29,12,31,15.90
2008,09,29,12,32,15.90
2008,09,29,12,33,15.80
2008,09,29,12,34,15.80
2008,09,29,12,35,15.80
2008,09,29,12,36,15.70
2008,09,29,12,37,15.70
2008,09,29,12,38,15.70
2008,09,29,12,39,15.60
2008,09,29,12,40,15.60
2008,09,29,12,41,15.60
2008,09,29,12,42,15.60
2008,09,29,12,43,15.50
2008,09,29,12,44,15.40
2008,09,29,12,45,15.40
2008,09,29,12,46,15.30
2008,09,29,12,47,15.30
2008,09,29,12,48,15.30
2008,09,29,12,49,15.30
2008,09,29,12,50,15.30
2008,09,29,12,51,15.30
2008,09,29,12,52,15.30
2008,09,29,12,53,15.30
2008,09,29,12,54,15.40
2008,09,29,12,55,15.40
2008,09,29,12,56,15.50
2008,09,29,12,57,15.60
2008,09,29,12,58,15.70
2008,09,29,12,59,15.70
2008,09,29,13,00,15.80
2008,09,29,13,01,15.90
2008,09,29,13,02,15.90
2008,09,29,13,03,16.00
2008,09,29,13,04,16.10
2008,09,29,13,05,16.10
2008,09,29,13,06,16.20
2008,09,29,13,07,16.20
2008,09,29,13,08,16.20
2008,09,29,13,09,16.20
2008,09,29,13,10,16.20
2008,09,29,13,11,16.20
2008,09,29,13,12,16.30
2008,09,29,13,13,16.30
2008,09,29,13,14,16.30
2008,09,29,13,15,16.20
2008,09,29,13,16,16.20
2008,09,29,13,17,16.20
2008,09,29,13,18,16.10
2008,09,29,13,19,16.00
2008,09,29,13,20,16.00
2008,09,29,13,21,15.90
2008,09,29,13,22,15.90
2008,09,29,13,23,15.90
2008,09,29,13,24,15.80
2008,09,29,13,25,15.70
2008,09,29,13,26,15.70
2008,09,29,13,27,15.60
2008,09,29,13,28,15.50
2008,09,29,13,29,15.50
2008,09,29,13,30,15.40
2008,09,29,13,31,15.50
2008,09,29,13,32,15.40
2008,09,29,13,33,15.40
2008,09,29,13,34,15.40
2008,09,29,13,35,15.40
2008,09,29,13,36,15.40
2008,09,29,13,37,15.40
2008,09,29,13,38,15.50
2008,09,29,13,39,15.50
2008,09,29,13,40,15.60
2008,09,29,13,41,15.60
2008,09,29,13,42,15.70
2008,09,29,13,43,15.70
2008,09,29,13,44,15.80
2008,09,29,13,45,15.80
2008,09,29,13,46,15.90
2008,09,29,13,47,16.00
2008,09,29,13,48,16.00
2008,09,29,13,49,16.10
2008,09,29,13,50,16.20
2008,09,29,13,51,16.30
2008,09,29,13,52,16.30
2008,09,29,13,53,16.40
2008,09,29,13,54,16.40
2008,09,29,13,55,16.50
2008,09,29,13,56,16.50
2008,09,29,13,57,16.60
2008,09,29,13,58,16.60
2008,09,29,13,59,16.70
2008,09,29,14,00,16.70
2008,09,29,14,01,16.70
2008,09,29,14,02,16.70
2008,09,29,14,03,16.80
2008,09,29,14,04,16.80
2008,09,29,14,05,16.70
2008,09,29,14,06,16.70
2008,09,29,14,07,16.60
2008,09,29,14,08,16.60
2008,09,29,14,09,16.60
2008,09,29,14,10,16.50
2008,09,29,14,11,16.50
2008,09,29,14,12,16.50
2008,09,29,14,13,16.50
2008,09,29,14,14,16.50
2008,09,29,14,15,16.50
2008,09,29,14,16,16.50
2008,09,29,14,17,16.50
2008,09,29,14,18,16.50
2008,09,29,14,19,16.50
2008,09,29,14,20,16.50
2008,09,29,14,21,16.50
2008,09,29,14,22,16.40
2008,09,29,14,23,16.40
2008,09,29,14,24,16.50
2008,09,29,14,25,16.50
2008,09,29,14,26,16.60
2008,09,29,14,27,16.60
2008,09,29,14,28,16.60
2008,09,29,14,29,16.60
2008,09,29,14,30,16.70
2008,09,29,14,31,16.70
2008,09,29,14,32,16.60
2008,09,29,14,33,16.60
2008,09,29,14,34,16.60
2008,09,29,14,35,16.50
2008,09,29,14,36,16.50
2008,09,29,14,37,16.40
2008,09,29,14,38,16.40
2008,09,29,14,39,16.40
2008,09,29,14,40,16.40
2008,09,29,14,41,16.40
2008,09,29,14,42,16.40
2008,09,29,14,43,16.50
2008,09,29,14,44,16.50
2008,09,29,14,45,16.60
2008,09,29,14,46,16.60
2008,09,29,14,47,16.70
2008,09,29,14,48,16.70
2008,09,29,14,49,16.80
2008,09,29,14,50,16.90
2008,09,29,14,51,17.00
2008,09,29,14,52,17.00
2008,09,29,14,53,17.00
2008,09,29,14,54,17.00
2008,09,29,14,55,17.00
2008,09,29,14,56,17.00
2008,09,29,14,57,17.00
2008,09,29,14,58,17.10
2008,09,29,14,59,17.10
2008,09,29,15,00,17.10
2008,09,29,15,01,17.20
2008,09,29,15,02,17.20
2008,09,29,15,03,17.30
2008,09,29,15,04,17.30
2008,09,29,15,05,17.30
2008,09,29,15,06,17.30
2008,09,29,15,07,17.40
2008,09,29,15,08,17.40
2008,09,29,15,09,17.40
2008,09,29,15,10,17.50
2008,09,29,15,11,17.50
2008,09,29,15,12,17.50
2008,09,29,15,13,17.40
2008,09,29,15,14,17.40
2008,09,29,15,15,17.40
2008,09,29,15,16,17.50
2008,09,29,15,17,17.50
2008,09,29,15,18,17.60
2008,09,29,15,19,17.60
2008,09,29,15,20,17.60
2008,09,29,15,21,17.70
2008,09,29,15,22,17.70
2008,09,29,15,23,17.70
2008,09,29,15,24,17.60
2008,09,29,15,25,17.60
2008,09,29,15,26,17.60
2008,09,29,15,27,17.70
2008,09,29,15,28,17.70
2008,09,29,15,29,17.70
2008,09,29,15,30,17.80
2008,09,29,15,31,17.80
2008,09,29,15,32,17.90
2008,09,29,15,33,17.90
2008,09,29,15,34,18.00
2008,09,29,15,35,18.00
2008,09,29,15,36,18.10
2008,09,29,15,37,18.10
2008,09,29,15,38,18.10
2008,09,29,15,39,18.10
2008,09,29,15,40,18.20
2008,09,29,15,41,18.20
2008,09,29,15,42,18.20
2008,09,29,15,43,18.20
2008,09,29,15,44,18.20
2008,09,29,15,45,18.20
2008,09,29,15,46,18.20
2008,09,29,15,47,18.20
2008,09,29,15,48,18.30
2008,09,29,15,49,18.30
2008,09,29,15,50,18.20
2008,09,29,15,51,18.20
2008,09,29,15,52,18.20
2008,09,29,15,53,18.10
2008,09,29,15,54,18.10
2008,09,29,15,55,18.00
2008,09,29,15,56,18.00
2008,09,29,15,57,17.90
2008,09,29,15,58,17.90
2008,09,29,15,59,17.90
2008,09,29,16,00,17.80
2008,09,29,16,01,17.80
2008,09,29,16,02,17.80
2008,09,29,16,03,17.80
2008,09,29,16,04,17.80
2008,09,29,16,05,17.80
2008,09,29,16,06,17.80
2008,09,29,16,07,17.80
2008,09,29,16,08,17.90
2008,09,29,16,09,17.90
2008,09,29,16,10,18.00
2008,09,29,16,11,18.00
2008,09,29,16,12,18.00
2008,09,29,16,13,18.00
2008,09,29,16,14,18.10
2008,09,29,16,15,18.10
2008,09,29,16,16,18.10
2008,09,29,16,17,18.10
2008,09,29,16,18,18.20
2008,09,29,16,19,18.20
2008,09,29,16,20,18.30
2008,09,29,16,21,18.30
2008,09,29,16,22,18.30
2008,09,29,16,23,18.40
2008,09,29,16,24,18.40
2008,09,29,16,25,18.40
2008,09,29,16,26,18.40
2008,09,29,16,27,18.40
2008,09,29,16,28,18.40
2008,09,29,16,29,18.40
2008,09,29,16,30,18.40
2008,09,29,16,31,18.50
2008,09,29,16,32,18.50
2008,09,29,16,33,18.50
2008,09,29,16,34,18.40
2008,09,29,16,35,18.40
2008,09,29,16,36,18.40
2008,09,29,16,37,18.40
2008,09,29,16,38,18.40
2008,09,29,16,39,18.40
2008,09,29,16,40,18.40
2008,09,29,16,41,18.40
2008,09,29,16,42,18.40
2008,09,29,16,43,18.40
2008,09,29,16,44,18.40
2008,09,29,16,45,18.40
2008,09,29,16,46,18.40
2008,09,29,16,47,18.40
2008,09,29,16,48,18.40
2008,09,29,16,49,18.40
2008,09,29,16,50,18.40
2008,09,29,16,51,18.40
2008,09,29,16,52,18.50
2008,09,29,16,53,18.60
2008,09,29,16,54,18.60
2008,09,29,16,55,18.60
2008,09,29,16,56,18.70
2008,09,29,16,57,18.70
2008,09,29,16,58,18.80
2008,09,29,16,59,18.80
2008,09,29,17,00,18.90
2008,09,29,17,01,18.90
2008,09,29,17,02,18.90
2008,09,29,17,03,19.00
2008,09,29,17,04,19.10
2008,09,29,17,05,19.10
2008,09,29,17,06,19.20
2008,09,29,17,07,19.20
2008,09,29,17,08,19.30
2008,09,29,17,09,19.30
2008,09,29,17,10,19.30
2008,09,29,17,11,19.20
2008,09,29,17,12,19.20
2008,09,29,17,13,19.10
2008,09,29,17,14,19.10
2008,09,29,17,15,19.00
2008,09,29,17,16,19.00
2008,09,29,17,17,19.00
2008,09,29,17,18,18.90
2008,09,29,17,19,18.90
2008,09,29,17,20,18.90
2008,09,29,17,21,18.90
2008,09,29,17,22,18.90
2008,09,29,17,23,18.90
2008,09,29,17,24,18.90
2008,09,29,17,25,18.90
2008,09,29,17,26,18.80
2008,09,29,17,27,18.80
2008,09,29,17,28,18.80
2008,09,29,17,29,18.70
2008,09,29,17,30,18.60
2008,09,29,17,31,18.50
2008,09,29,17,32,18.40
2008,09,29,17,33,18.20
2008,09,29,17,34,18.20
2008,09,29,17,35,18.10
2008,09,29,17,36,18.00
2008,09,29,17,37,18.00
2008,09,29,17,38,17.90
2008,09,29,17,39,17.90